Weather History for K1A6 - December, 2011

Change the Weather History Date:

Monday, December 26, 2011

  Actual Average (KLOZ) Record (KLOZ)
Temperature  
Mean Temperature 37 °F 36 °F  
Max Temperature 48 °F 45 °F 70 °F (1987)
Min Temperature 26 °F 28 °F 1 °F (1966)
Degree Days  
Heating Degree Days 28 29  
Month to date heating degree days 677  
Since 1 July heating degree days 1507  
Cooling Degree Days 0 0  
Month to date cooling degree days 0  
Moisture  
Dew Point 31 °F    
Average Humidity 76    
Maximum Humidity 100    
Minimum Humidity 54    
Precipitation  
Precipitation 0.00 in 0.13 in 1.36 in (1982)
Month to date precipitation 3.63  
Sea Level Pressure  
Sea Level Pressure 30.30 in    
Wind  
Wind Speed 1 mph (SSE)    
Max Wind Speed 6 mph    
Max Gust Speed -    
Visibility 10 miles    
Events      
T = Trace of Precipitation, MM = Missing Value Source: NWS Daily Summary

Daily Weather History Graph

Daily Weather History Graph

Search for Another Location

Airport or City:

Trip Planner

Search our weather history database for the weather conditions in past years. The results will help you decide how hot, cold, wet, or windy it might be!

Date:

Astronomy

Dec. 26, 2011 Rise Set
Actual Time 6:45 AM CST 4:25 PM CST
Civil Twilight 6:16 AM CST 4:54 PM CST
Nautical Twilight 5:44 AM CST 5:26 PM CST
Astronomical Twilight 5:12 AM CST 5:58 PM CST
Moon 8:07 AM CST (12/26) 6:49 PM CST (12/26)
Length of Visible Light 10h 37m
Length of Day
9h 40m
Waxing Crescent, 5% of the Moon is Illuminated
Dec 26
Waxing Crescent
Jan 1
First Quarter
Jan 9
Full
Jan 16
Last Quarter
Jan 23
New

Hourly Weather History & Observations

Time (CST) Temp. Windchill Dew Point Humidity Pressure Visibility Wind Dir Wind Speed Gust Speed Precip Events Conditions
12:15 AM 33.8 °F - 30.2 °F 87% 30.31 in 10.0 mi Calm Calm - N/A   Clear
12:35 AM 37.4 °F - 30.2 °F 75% 30.31 in 10.0 mi Calm Calm - N/A   Clear
1:15 AM 37.4 °F - 30.2 °F 75% 30.32 in 10.0 mi Calm Calm - N/A   Clear
1:35 AM 35.6 °F 32.8 °F 30.2 °F 81% 30.33 in 10.0 mi NW 3.5 mph - N/A   Clear
1:55 AM 35.6 °F 31.7 °F 30.2 °F 81% 30.34 in 10.0 mi NNW 4.6 mph - N/A   Clear
2:35 AM 33.8 °F - 30.2 °F 87% 30.34 in 10.0 mi Calm Calm - N/A   Clear
2:55 AM 32.0 °F - 30.2 °F 93% 30.34 in 10.0 mi Calm Calm - N/A   Clear
3:15 AM 30.2 °F - 30.2 °F 100% 30.33 in 10.0 mi Calm Calm - N/A   Clear
3:35 AM 30.2 °F - 30.2 °F 100% 30.33 in 10.0 mi Calm Calm - N/A   Clear
3:55 AM 30.2 °F - 30.2 °F 100% 30.33 in 10.0 mi Calm Calm - N/A   Clear
4:15 AM 30.2 °F - 28.4 °F 93% 30.34 in 10.0 mi Calm Calm - N/A   Clear
4:35 AM 30.2 °F - 28.4 °F 93% 30.34 in 10.0 mi Calm Calm - N/A   Clear
4:55 AM 30.2 °F - 28.4 °F 93% 30.35 in 10.0 mi Calm Calm - N/A   Clear
5:15 AM 28.4 °F - 26.6 °F 93% 30.36 in 10.0 mi Calm Calm - N/A   Clear
5:35 AM 28.4 °F - 28.4 °F 100% 30.37 in 10.0 mi Calm Calm - N/A   Clear
5:55 AM 28.4 °F - 28.4 °F 100% 30.37 in 10.0 mi Calm Calm - N/A   Clear
6:15 AM 28.4 °F - 26.6 °F 93% 30.37 in 10.0 mi Calm Calm - N/A   Clear
6:35 AM 26.6 °F - 26.6 °F 100% 30.37 in 10.0 mi Calm Calm - N/A   Clear
6:55 AM 28.4 °F - 26.6 °F 93% 30.38 in 10.0 mi Calm Calm - N/A   Clear
7:15 AM 26.6 °F - 26.6 °F 100% 30.38 in 10.0 mi Calm Calm - N/A   Clear
7:35 AM 28.4 °F - 26.6 °F 93% 30.39 in 10.0 mi Calm Calm - N/A   Clear
7:55 AM 30.2 °F - 28.4 °F 93% 30.39 in 10.0 mi Calm Calm - N/A   Clear
8:15 AM 33.8 °F - 32.0 °F 93% 30.38 in 10.0 mi Calm Calm - N/A   Clear
8:35 AM 33.8 °F - 33.8 °F 100% 30.39 in 10.0 mi Calm Calm - N/A   Clear
8:55 AM 35.6 °F - 30.2 °F 81% 30.39 in 10.0 mi Calm Calm - N/A   Clear
9:15 AM 37.4 °F - 32.0 °F 81% 30.40 in 10.0 mi Calm Calm - N/A   Clear
9:55 AM 39.2 °F - 33.8 °F 81% 30.39 in 10.0 mi Calm Calm - N/A   Clear
10:15 AM 42.8 °F - 33.8 °F 70% 30.39 in 10.0 mi Calm Calm - N/A   Clear
10:35 AM 44.6 °F - 33.8 °F 66% 30.37 in 10.0 mi Calm Calm - N/A   Scattered Clouds
10:55 AM 46.4 °F 45.2 °F 33.8 °F 62% 30.34 in 10.0 mi SE 3.5 mph - N/A   Scattered Clouds
11:15 AM 46.4 °F 43.5 °F 33.8 °F 62% 30.32 in 10.0 mi East 5.8 mph - N/A   Clear
11:35 AM 46.4 °F 44.3 °F 32.0 °F 57% 30.31 in 10.0 mi SE 4.6 mph - N/A   Scattered Clouds
11:55 AM 46.4 °F 44.3 °F 32.0 °F 57% 30.29 in 10.0 mi SSE 4.6 mph - N/A   Clear
12:15 PM 46.4 °F 45.2 °F 33.8 °F 62% 30.27 in 10.0 mi ESE 3.5 mph - N/A   Clear
12:35 PM 48.2 °F - 32.0 °F 54% 30.26 in 10.0 mi SE 3.5 mph - N/A   Scattered Clouds
12:55 PM 48.2 °F - 32.0 °F 54% 30.26 in 10.0 mi SE 4.6 mph - N/A   Clear
1:15 PM 48.2 °F - 32.0 °F 54% 30.24 in 10.0 mi SE 3.5 mph - N/A   Scattered Clouds
1:35 PM 48.2 °F - 32.0 °F 54% 30.23 in 10.0 mi Calm Calm - N/A   Clear
1:55 PM 48.2 °F - 32.0 °F 54% 30.22 in 10.0 mi Calm Calm - N/A   Scattered Clouds
2:15 PM 48.2 °F - 32.0 °F 54% 30.21 in 10.0 mi South 4.6 mph - N/A   Clear
2:35 PM 48.2 °F - 32.0 °F 54% 30.20 in 10.0 mi SSE 5.8 mph - N/A   Clear
2:55 PM 48.2 °F - 32.0 °F 54% 30.20 in 10.0 mi Calm Calm - N/A   Clear
3:15 PM 48.2 °F - 32.0 °F 54% 30.20 in 10.0 mi South 3.5 mph - N/A   Clear
3:35 PM 46.4 °F - 33.8 °F 62% 30.19 in 10.0 mi Calm Calm - N/A   Clear
3:55 PM 46.4 °F - 33.8 °F 62% 30.19 in 10.0 mi Calm Calm - N/A   Clear
4:15 PM 46.4 °F - 32.0 °F 57% 30.17 in 10.0 mi Calm Calm - N/A   Clear
4:35 PM 46.4 °F - 33.8 °F 62% 30.17 in 10.0 mi Calm Calm - N/A   Clear
4:55 PM 44.6 °F - 35.6 °F 71% 30.16 in 10.0 mi Calm Calm - N/A   Clear
5:35 PM 44.6 °F 42.2 °F 33.8 °F 66% 30.17 in 10.0 mi SW 4.6 mph - N/A   Clear
5:55 PM 44.6 °F - 33.8 °F 66% 30.18 in 10.0 mi Calm Calm - N/A   Clear
6:15 PM 44.6 °F 43.1 °F 33.8 °F 66% 30.16 in 10.0 mi West 3.5 mph - N/A   Clear
6:55 PM 44.6 °F 43.1 °F 33.8 °F 66% 30.14 in 10.0 mi West 3.5 mph - N/A   Clear
7:15 PM 44.6 °F 42.2 °F 33.8 °F 66% 30.12 in 10.0 mi WSW 4.6 mph - N/A   Clear
7:35 PM 44.6 °F - 33.8 °F 66% 30.10 in 10.0 mi Calm Calm - N/A   Clear
7:55 PM 44.6 °F 43.1 °F 33.8 °F 66% 30.08 in 10.0 mi WNW 3.5 mph - N/A   Clear
8:15 PM 44.6 °F 42.2 °F 33.8 °F 66% 30.09 in 10.0 mi WSW 4.6 mph - N/A   Clear
8:35 PM 46.4 °F 45.2 °F 33.8 °F 62% 30.07 in 10.0 mi West 3.5 mph - N/A   Clear
8:55 PM 44.6 °F - 33.8 °F 66% 30.05 in 10.0 mi Calm Calm - N/A   Clear
9:15 PM 44.6 °F - 33.8 °F 66% 30.04 in 10.0 mi Calm Calm - N/A   Clear
9:35 PM 44.6 °F - 33.8 °F 66% 30.03 in 10.0 mi Calm Calm - N/A   Clear
9:55 PM 44.6 °F 43.1 °F 33.8 °F 66% 30.02 in 10.0 mi West 3.5 mph - N/A   Clear
10:15 PM 44.6 °F 43.1 °F 33.8 °F 66% 30.02 in 10.0 mi WSW 3.5 mph - N/A   Clear
10:35 PM 44.6 °F - 33.8 °F 66% 30.01 in 10.0 mi Calm Calm - N/A   Scattered Clouds
10:55 PM 44.6 °F - 33.8 °F 66% 29.99 in 10.0 mi Calm Calm - N/A   Scattered Clouds
11:15 PM 44.6 °F - 35.6 °F 71% 29.97 in 10.0 mi Calm Calm - N/A   Scattered Clouds
11:35 PM 44.6 °F - 35.6 °F 71% 29.97 in 10.0 mi Calm Calm - N/A   Mostly Cloudy
11:55 PM 44.6 °F - 35.6 °F 71% 29.94 in 7.0 mi Calm Calm - N/A Rain Rain